| time (UTC) | temp C | wind direction | speed KPH | gust KPH | rain 1hr cm | rain 24hr cm | rain mn cm | humidity % | barometer mb |
| 20260507070023 | 9 | 329 | 1.6 | 8.0 | 0.00 | 0.00 | 0.00 | 100 | 1015.3 |
| 20260507064522 | 8 | 342 | 0.0 | 9.7 | 0.00 | 0.00 | 0.00 | 100 | 1015.2 |
| 20260507063016 | 7 | 311 | 0.0 | 6.4 | 0.00 | 0.00 | 0.00 | 100 | 1015.0 |
| 20260507061511 | 7 | 336 | 3.2 | 8.0 | 0.00 | 0.00 | 0.00 | 100 | 1015.0 |
| 20260507060011 | 6 | 338 | 1.6 | 9.7 | 0.00 | 0.00 | 0.00 | 100 | 1014.9 |
| 20260507054504 | 5 | 324 | 3.2 | 9.7 | 0.00 | 0.00 | 0.00 | 100 | 1014.9 |
| 20260507053107 | 5 | 315 | 3.2 | 9.7 | 0.00 | 0.00 | 0.00 | 100 | 1014.8 |
| 20260507051556 | 3 | 331 | 3.2 | 6.4 | 0.00 | 0.00 | 0.00 | 100 | 1014.7 |
| 20260507050052 | 3 | 335 | 3.2 | 6.4 | 0.00 | 0.00 | 0.00 | 100 | 1014.6 |
| 20260507044600 | 2 | 355 | 3.2 | 6.4 | 0.00 | 0.00 | 0.00 | 100 | 1014.5 |
| 20260507043051 | 2 | 324 | 3.2 | 6.4 | 0.00 | 0.00 | 0.00 | 100 | 1014.6 |
| 20260507041549 | 2 | 324 | 1.6 | 4.8 | 0.00 | 0.00 | 0.00 | 100 | 1014.6 |
| 20260507040046 | 1 | 327 | 3.2 | 6.4 | 0.00 | 0.00 | 0.00 | 100 | 1014.4 |
| 20260507034544 | 1 | 333 | 3.2 | 4.8 | 0.00 | 0.00 | 0.00 | 100 | 1014.4 |
| 20260507033040 | 1 | 333 | 1.6 | 6.4 | 0.00 | 0.00 | 0.00 | 100 | 1014.2 |
| 20260507031636 | 0 | 335 | 3.2 | 6.4 | 0.00 | 0.00 | 0.00 | 100 | 1014.1 |
| 20260507030035 | 0 | 343 | 3.2 | 6.4 | 0.00 | 0.00 | 0.00 | 100 | 1013.9 |
| 20260507024514 | 0 | 345 | 3.2 | 4.8 | 0.00 | 0.00 | 0.00 | 100 | 1013.8 |
| 20260507023012 | 0 | 46 | 3.2 | 4.8 | 0.00 | 0.00 | 0.00 | 100 | 1013.6 |
| 20260507021517 | 0 | 46 | 0.0 | 1.6 | 0.00 | 0.00 | 0.00 | 100 | 1013.6 |
| 20260507020008 | 0 | 46 | 0.0 | 3.2 | 0.00 | 0.00 | 0.00 | 100 | 1013.6 |
| 20260507014507 | 0 | 46 | 1.6 | 4.8 | 0.00 | 0.00 | 0.00 | 100 | 1013.6 |
| 20260507013005 | 0 | 46 | 0.0 | 3.2 | 0.00 | 0.00 | 0.00 | 100 | 1013.6 |
| 20260507011504 | 0 | 46 | 1.6 | 4.8 | 0.00 | 0.00 | 0.00 | 100 | 1013.6 |
| 20260507010003 | 0 | 46 | 0.0 | 1.6 | 0.00 | 0.00 | 0.00 | 100 | 1013.5 |
| 20260507004502 | 0 | 46 | 0.0 | 3.2 | 0.00 | 0.00 | 0.00 | 100 | 1013.4 |
| 20260507003001 | 0 | 46 | 0.0 | 3.2 | 0.00 | 0.00 | 0.00 | 100 | 1013.4 |
| 20260507001600 | 0 | 46 | 0.0 | 3.2 | 0.00 | 0.00 | 0.00 | 100 | 1013.5 |
| 20260507000058 | 0 | 46 | 1.6 | 3.2 | 0.00 | 0.00 | 0.00 | 100 | 1013.4 |
| 20260506234556 | 0 | 119 | 1.6 | 3.2 | 0.00 | 0.00 | 0.00 | 100 | 1013.3 |
| 20260506233055 | 1 | 119 | 0.0 | 0.0 | 0.00 | 0.00 | 0.00 | 100 | 1013.4 |
| 20260506231552 | 1 | 119 | 0.0 | 3.2 | 0.00 | 0.00 | 0.00 | 100 | 1013.4 |
| 20260506230055 | 1 | 119 | 1.6 | 3.2 | 0.00 | 0.00 | 0.00 | 100 | 1013.4 |
| 20260506224600 | 1 | 119 | 0.0 | 0.0 | 0.00 | 0.00 | 0.00 | 100 | 1013.3 |
| 20260506223045 | 2 | 119 | 0.0 | 0.0 | 0.00 | 0.00 | 0.00 | 100 | 1013.2 |
| 20260506221542 | 2 | 119 | 0.0 | 0.0 | 0.00 | 0.00 | 0.00 | 100 | 1013.2 |
| 20260506220039 | 2 | 119 | 0.0 | 0.0 | 0.00 | 0.00 | 0.00 | 100 | 1013.2 |
| 20260506214546 | 3 | 119 | 0.0 | 3.2 | 0.00 | 0.00 | 0.00 | 100 | 1013.1 |
| 20260506213042 | 3 | 120 | 0.0 | 0.0 | 0.00 | 0.00 | 0.00 | 100 | 1012.9 |
| 20260506211536 | 3 | 120 | 0.0 | 1.6 | 0.00 | 0.00 | 0.00 | 100 | 1012.9 |
| 20260506210039 | 4 | 120 | 0.0 | 0.0 | 0.00 | 0.00 | 0.00 | 100 | 1012.9 |
| 20260506204535 | 4 | 120 | 0.0 | 0.0 | 0.00 | 0.00 | 0.00 | 100 | 1013.0 |
| 20260506203035 | 4 | 120 | 0.0 | 3.2 | 0.00 | 0.00 | 0.00 | 100 | 1012.9 |
| 20260506201533 | 3 | 107 | 0.0 | 3.2 | 0.00 | 0.00 | 0.00 | 100 | 1012.8 |
| 20260506200033 | 3 | 107 | 0.0 | 3.2 | 0.00 | 0.00 | 0.00 | 100 | 1012.7 |
| 20260506194541 | 5 | 115 | 0.0 | 3.2 | 0.00 | 0.00 | 0.00 | 100 | 1012.6 |
| 20260506193029 | 5 | 115 | 0.0 | 0.0 | 0.00 | 0.00 | 0.00 | 100 | 1012.6 |
| 20260506191533 | 6 | 115 | 0.0 | 1.6 | 0.00 | 0.00 | 0.00 | 100 | 1012.5 |
| 20260506190132 | 6 | 115 | 0.0 | 0.0 | 0.00 | 0.00 | 0.00 | 100 | 1012.5 |
| 20260506184528 | 6 | 115 | 0.0 | 0.0 | 0.00 | 0.00 | 0.00 | 100 | 1012.3 |
| 20260506183022 | 7 | 115 | 0.0 | 4.8 | 0.00 | 0.00 | 0.00 | 100 | 1012.1 |
| 20260506181521 | 7 | 115 | 0.0 | 3.2 | 0.00 | 0.00 | 0.00 | 100 | 1011.9 |
| 20260506180025 | 7 | 103 | 4.8 | 11.3 | 0.00 | 0.00 | 0.00 | 100 | 1011.7 |
| 20260506174518 | 7 | 104 | 6.4 | 12.9 | 0.00 | 0.00 | 0.00 | 100 | 1011.5 |
| 20260506173017 | 8 | 115 | 4.8 | 14.5 | 0.00 | 0.00 | 0.00 | 100 | 1011.5 |
| 20260506171520 | 8 | 94 | 9.7 | 16.1 | 0.00 | 0.00 | 0.00 | 100 | 1011.5 |
| 20260506170016 | 8 | 109 | 12.9 | 20.9 | 0.00 | 0.00 | 0.00 | 100 | 1011.3 |
| 20260506164520 | 8 | 118 | 12.9 | 19.3 | 0.00 | 0.00 | 0.00 | 100 | 1011.3 |
| 20260506163017 | 9 | 127 | 14.5 | 22.5 | 0.00 | 0.00 | 0.00 | 100 | 1011.3 |
| 20260506161514 | 9 | 92 | 14.5 | 19.3 | 0.00 | 0.00 | 0.00 | 100 | 1011.4 |
| 20260506160014 | 10 | 126 | 12.9 | 20.9 | 0.00 | 0.00 | 0.00 | 100 | 1011.5 |
| 20260506154514 | 10 | 87 | 12.9 | 19.3 | 0.00 | 0.00 | 0.00 | 100 | 1011.5 |
| 20260506153013 | 10 | 111 | 17.7 | 25.7 | 0.00 | 0.00 | 0.00 | 100 | 1011.5 |
| 20260506151523 | 10 | 117 | 16.1 | 22.5 | 0.00 | 0.00 | 0.00 | 100 | 1011.5 |
| 20260506150012 | 10 | 89 | 12.9 | 25.7 | 0.00 | 0.00 | 0.00 | 100 | 1011.5 |
| 20260506144511 | 11 | 110 | 16.1 | 25.7 | 0.00 | 0.00 | 0.00 | 100 | 1011.4 |
| 20260506143011 | 11 | 98 | 11.3 | 22.5 | 0.00 | 0.00 | 0.00 | 100 | 1011.3 |
| 20260506141509 | 10 | 93 | 16.1 | 25.7 | 0.00 | 0.00 | 0.00 | 100 | 1011.3 |
| 20260506140009 | 10 | 126 | 16.1 | 27.4 | 0.00 | 0.00 | 0.00 | 75 | 1011.2 |
| 20260506134507 | 10 | 89 | 11.3 | 24.1 | 0.00 | 0.00 | 0.00 | 50 | 1011.2 |
| 20260506133006 | 11 | 118 | 17.7 | 29.0 | 0.00 | 0.00 | 0.00 | 30 | 1011.0 |
| 20260506131512 | 11 | 111 | 22.5 | 30.6 | 0.00 | 0.00 | 0.00 | 26 | 1010.9 |
| 20260506130005 | 11 | 109 | 20.9 | 32.2 | 0.00 | 0.00 | 0.00 | 16 | 1010.7 |
| 20260506124602 | 11 | 90 | 16.1 | 29.0 | 0.00 | 0.00 | 0.00 | 19 | 1010.8 |
| 20260506123003 | 11 | 104 | 19.3 | 33.8 | 0.00 | 0.00 | 0.00 | 25 | 1010.8 |
| 20260506121559 | 11 | 105 | 19.3 | 30.6 | 0.00 | 0.00 | 0.00 | 34 | 1010.7 |
| 20260506120057 | 11 | 134 | 22.5 | 37.0 | 0.00 | 0.00 | 0.00 | 36 | 1010.6 |
| 20260506114601 | 11 | 89 | 17.7 | 37.0 | 0.00 | 0.00 | 0.00 | 41 | 1010.5 |
| 20260506113059 | 11 | 62 | 17.7 | 27.4 | 0.00 | 0.00 | 0.00 | 82 | 1010.5 |
| 20260506111552 | 11 | 115 | 17.7 | 33.8 | 0.00 | 0.00 | 0.00 | 100 | 1010.6 |
| 20260506110050 | 11 | 111 | 19.3 | 37.0 | 0.00 | 0.00 | 0.00 | 100 | 1010.6 |
| 20260506104557 | 11 | 91 | 20.9 | 33.8 | 0.00 | 0.00 | 0.00 | 100 | 1010.7 |
| 20260506103057 | 11 | 87 | 24.1 | 33.8 | 0.00 | 0.00 | 0.00 | 100 | 1010.6 |
| 20260506101552 | 11 | 79 | 12.9 | 30.6 | 0.00 | 0.00 | 0.00 | 100 | 1010.5 |
| 20260506100048 | 11 | 119 | 22.5 | 33.8 | 0.00 | 0.00 | 0.00 | 100 | 1010.5 |
| 20260506094546 | 12 | 73 | 17.7 | 30.6 | 0.00 | 0.00 | 0.00 | 100 | 1010.5 |
| 20260506093045 | 12 | 84 | 16.1 | 30.6 | 0.00 | 0.00 | 0.00 | 100 | 1010.5 |
| 20260506091540 | 11 | 28 | 4.8 | 22.5 | 0.00 | 0.00 | 0.00 | 100 | 1010.5 |
| 20260506090036 | 10 | 105 | 11.3 | 19.3 | 0.00 | 0.00 | 0.00 | 100 | 1010.4 |
| 20260506084540 | 10 | 52 | 12.9 | 24.1 | 0.00 | 0.00 | 0.00 | 100 | 1010.3 |
| 20260506083033 | 10 | 73 | 4.8 | 20.9 | 0.00 | 0.00 | 0.00 | 100 | 1010.4 |
| 20260506081530 | 9 | 107 | 16.1 | 22.5 | 0.00 | 0.00 | 0.00 | 100 | 1010.3 |
| 20260506073023 | 7 | 84 | 3.2 | 19.3 | 0.00 | 0.00 | 0.00 | 100 | 1009.9 |
| 20260506071549 | 7 | 77 | 3.2 | 17.7 | 0.00 | 0.00 | 0.00 | 100 | 1010.1 |